[[{"header":{"parameterUnit":"m.s-1","parameterCategory":1,"la1":30.2991,"la2":30.254,"lo1":-89.0895,"lo2":-89.0444,"dy":0.0017,"dx":0.0017,"nx":28,"ny":28,"refTime":"2026-03-04T03:00:00:Z","depth":0,"parameterNumber":2,"parameterNumberName":"U-component_of_WINDS"},"data":[0,0,0,0,0,0,0,0,0,0,0,0,0,0,0,0,0,0,0,0,0,0,0,0,0,0,0,0,0,0,0,0,0,0,0,0,0,0,0,0,0,0,0,0,0,0,0,0,0,0,0,0,0,0,0,0,0,0,-3.079,-3.079,0,-3.0783,-3.0783,-3.0783,-3.0724,-3.0723,-3.0721,-3.072,-3.0715,-3.0716,-3.0717,0,0,0,0,0,0,0,0,0,0,0,0,0,-3.0753,-3.0754,-3.079,-3.079,-3.0789,-3.0783,-3.0783,-3.0783,-3.0724,-3.0722,-3.0721,-3.0719,-3.0714,-3.0716,-3.0717,0,0,0,0,0,0,0,0,0,0,0,0,0,-3.076,-3.0754,-3.079,-3.0759,-3.0756,-3.0783,-3.0783,-3.0783,-3.0725,-3.0722,-3.072,-3.0718,-3.0714,-3.0715,-3.0717,-3.0773,0,0,-3.0723,-3.0724,0,0,0,0,0,0,0,0,-3.076,-3.0762,-3.0764,-3.0761,-3.0758,-3.0752,-3.0769,-3.078,-3.0725,-3.0737,-3.072,-3.0717,-3.0729,-3.0729,-3.0733,-3.0773,-3.0773,-3.0723,-3.0724,-3.0725,-3.0726,0,0,0,0,0,0,0,-3.0759,-3.0762,-3.0787,-3.0764,-3.0761,-3.0747,-3.0745,-3.077,-3.0745,-3.0736,-3.0731,-3.0731,-3.0727,-3.0732,-3.0733,-3.0773,-3.0723,-3.0725,-3.0726,-3.0727,-3.086,-3.0863,0,0,0,0,0,0,-3.0763,-3.0761,-3.0787,-3.0787,-3.0754,-3.0749,-3.0748,-3.0756,-3.0745,-3.0741,-3.0733,-3.0729,-3.0729,-3.0731,-3.0732,-3.0797,-3.0725,-3.0727,-3.0728,-3.0858,-3.0861,-3.0864,0,0,0,0,0,0,-3.0762,-3.0766,-3.0788,-3.0773,-3.0775,-3.0752,-3.0763,-3.0757,-3.0762,-3.0743,-3.0739,-3.0742,-3.0728,-3.073,-3.0764,-3.0796,-3.0728,-3.0729,-3.0855,-3.0859,-3.0862,-3.0928,0,0,0,0,0,0,-3.0762,-3.0766,-3.0786,-3.0774,-3.0776,-3.0819,-3.0765,-3.0759,-3.0765,-3.0759,-3.075,-3.0747,-3.0726,-3.0761,-3.0766,-3.0798,-3.0731,-3.0852,-3.0857,-3.0861,-3.0923,-3.0934,-3.0943,0,0,0,0,0,-3.076,-3.0805,-3.0787,-3.0791,-3.08,-3.082,-3.0822,-3.0796,-3.0768,-3.0788,-3.0777,-3.0747,-3.0793,-3.0765,-3.077,-3.0803,-3.085,-3.0855,-3.0861,-3.0919,-3.0932,-3.0943,0,0,0,0,0,0,-3.082,-3.0802,-3.0783,-3.0824,-3.0825,-3.081,-3.0835,-3.0811,-3.0819,-3.0813,-3.0782,-3.0781,-3.082,-3.0815,-3.0785,-3.0858,-3.0816,-3.0823,-3.0859,-3.0871,-3.0881,-3.0881,-3.0732,0,0,0,0,0,-3.0839,-3.0856,-3.084,-3.0878,-3.0879,-3.0858,-3.0865,-3.0846,-3.0845,-3.0845,-3.0836,-3.0836,-3.0851,-3.0861,-3.0873,-3.0923,-3.0921,-3.0949,-3.0958,-3.0967,-3.0972,-3.0999,-3.1012,-3.0882,-3.0882,-3.0881,0,0,-3.0876,-3.0869,-3.0881,-3.089,-3.0888,-3.0907,-3.0858,-3.088,-3.0894,-3.0848,-3.088,-3.0874,-3.0873,-3.0915,-3.0934,-3.0912,-3.1008,-3.0974,-3.098,-3.0981,-3.1006,-3.1019,-3.103,-3.0885,-3.0885,-3.0884,0,0,-3.0954,-3.095,-3.0982,-3.0981,-3.0979,-3.0965,-3.0973,-3.0963,-3.0957,-3.0989,-3.0955,-3.0973,-3.0998,-3.0999,-3.1003,-3.1085,-3.1058,-3.1091,-3.1142,-3.1169,-3.1179,-3.1188,-3.1217,-3.1228,-3.1097,-3.1097,-3.1097,0,-3.1001,-3.1028,-3.1001,-3.1026,-3.1032,-3.0992,-3.1025,-3.1026,-3.1028,-3.1033,-3.101,-3.1042,-3.1039,-3.1081,-3.1102,-3.1106,-3.1115,-3.109,-3.1179,-3.1188,-3.1196,-3.1224,-3.1235,-3.1101,-3.11,-3.11,-3.1099,0,-3.1086,-3.1105,-3.1132,-3.1135,-3.1144,-3.1173,-3.1152,-3.1164,-3.1146,-3.1135,-3.1168,-3.1163,-3.1174,-3.1184,-3.1165,-3.1225,-3.1212,-3.1185,-3.1142,-3.1213,-3.1238,-3.1249,-3.1106,-3.1105,-3.1104,-3.1103,0,0,-3.1198,-3.1188,-3.1198,-3.12,-3.1196,-3.1211,-3.124,-3.1251,-3.1262,-3.1267,-3.129,-3.1314,-3.1289,-3.1294,-3.1276,-3.13,-3.1366,-3.127,-3.1269,-3.1287,-3.1432,-3.1451,-3.1464,-3.1349,-3.1351,-3.1353,-3.1432,0,-3.1272,-3.1319,-3.1297,-3.1347,-3.1365,-3.133,-3.1355,-3.1356,-3.1348,-3.1363,-3.1354,-3.1371,-3.1337,-3.134,-3.1362,-3.1353,-3.1394,-3.1348,-3.1371,-3.1372,-3.137,-3.1477,-3.1498,-3.1572,-3.1442,-3.1443,-3.1445,0,-3.1364,-3.1373,-3.1424,-3.1419,-3.1426,-3.1448,-3.1458,-3.1473,-3.1475,-3.1467,-3.1474,-3.1451,-3.148,-3.144,-3.1479,-3.1448,-3.1457,-3.1455,-3.1457,-3.1457,-3.1411,-3.1479,-3.1595,-3.1606,-3.146,-3.1459,-3.1458,0,-3.1441,-3.1465,-3.1499,-3.1502,-3.1497,-3.1514,-3.1512,-3.1512,-3.1521,-3.153,-3.1536,-3.1548,-3.1555,-3.1566,-3.1548,-3.152,-3.1591,-3.1549,-3.1586,-3.1586,-3.16,-3.1599,-3.1718,-3.1608,-3.1608,-3.1608,-3.1608,0,-3.1525,-3.1558,-3.1533,-3.1554,-3.1591,-3.1567,-3.1604,-3.1599,-3.16,-3.162,-3.1591,-3.1611,-3.1587,-3.1605,-3.1591,-3.1627,-3.163,-3.1625,-3.1621,-3.1627,-3.1627,-3.1631,-3.1625,-3.1611,-3.161,-3.161,-3.1609,0,-3.1615,-3.16,-3.1635,-3.1628,-3.1628,-3.1655,-3.1649,-3.1669,-3.166,-3.1686,-3.1691,-3.1676,-3.1696,-3.168,-3.17,-3.1691,-3.1738,-3.1727,-3.1737,-3.1733,-3.1771,-3.1767,-3.1895,-3.1911,-3.1792,-3.1793,-3.1794,0,-3.1669,-3.1694,-3.169,-3.1702,-3.1702,-3.1721,-3.1731,-3.171,-3.1721,-3.1727,-3.1746,-3.1764,-3.1776,-3.181,-3.1802,-3.1817,-3.1806,-3.185,-3.1807,-3.1813,-3.1806,-3.1804,-3.1806,-3.1857,-3.1859,-3.186,-3.1861,0,-3.1767,-3.1759,-3.1773,-3.1786,-3.1798,-3.1807,-3.1814,-3.1825,-3.1804,-3.1819,-3.1839,-3.1849,-3.187,-3.1888,-3.1901,-3.19,-3.1878,-3.1875,-3.1884,-3.1889,-3.1894,-3.1892,-3.1759,-3.1871,-3.187,-3.1869,-3.1869,-3.1868,-3.184,-3.186,-3.1862,-3.1879,-3.1883,-3.189,-3.1909,-3.1903,-3.1919,-3.1934,-3.1922,-3.1946,-3.195,-3.1965,-3.1968,-3.1988,-3.1969,-3.1983,-3.1986,-3.1989,-3.1995,-3.1893,-3.199,-3.199,-3.199,-3.1989,-3.1989,0,-3.1935,-3.1935,-3.1952,-3.1963,-3.1977,-3.1956,-3.1963,-3.1977,-3.1998,-3.2004,-3.2017,-3.2042,-3.206,-3.2055,-3.2071,-3.2088,-3.2078,-3.2093,-3.2091,-3.2091,-3.201,-3.2,-3.2101,-3.2101,-3.2101,-3.2101,-3.2101,-3.2101,-3.1986,-3.202,-3.2013,-3.205,-3.2049,-3.2073,-3.2079,-3.2087,-3.2091,-3.2119,-3.2135,-3.2131,-3.2133,-3.215,-3.2166,-3.2164,-3.2171,-3.219,-3.2184,-3.2108,-3.2097,-3.2086,-3.2077,-3.2192,-3.2192,-3.2264,-3.2264,-3.2265]},{"header":{"parameterUnit":"m.s-1","parameterCategory":1,"la1":30.2991,"la2":30.254,"lo1":-89.0895,"lo2":-89.0444,"dy":0.0017,"dx":0.0017,"nx":28,"ny":28,"refTime":"2026-03-04T03:00:00:Z","depth":0,"parameterNumber":3,"parameterNumberName":"V-component_of_WINDS"},"data":[0,0,0,0,0,0,0,0,0,0,0,0,0,0,0,0,0,0,0,0,0,0,0,0,0,0,0,0,0,0,0,0,0,0,0,0,0,0,0,0,0,0,0,0,0,0,0,0,0,0,0,0,0,0,0,0,0,0,0.6374,0.6374,0,0.6416,0.6417,0.6417,0.6478,0.6479,0.648,0.6481,0.6522,0.6522,0.6522,0,0,0,0,0,0,0,0,0,0,0,0,0,0.6345,0.6345,0.6374,0.6375,0.6375,0.6416,0.6417,0.6417,0.6478,0.6479,0.6481,0.6482,0.6522,0.6522,0.6522,0,0,0,0,0,0,0,0,0,0,0,0,0,0.6369,0.6346,0.6374,0.641,0.6414,0.6416,0.6417,0.6418,0.6478,0.6479,0.6481,0.6482,0.6522,0.6522,0.6522,0.6491,0,0,0.6522,0.6522,0,0,0,0,0,0,0,0,0.6368,0.637,0.6404,0.6408,0.6412,0.6444,0.6422,0.6442,0.6477,0.6453,0.6481,0.6483,0.6494,0.6497,0.6501,0.6493,0.6494,0.6522,0.6522,0.6522,0.6522,0,0,0,0,0,0,0,0.6366,0.6369,0.6391,0.6405,0.6409,0.6424,0.643,0.6426,0.6464,0.6456,0.646,0.6465,0.6497,0.6501,0.6502,0.6495,0.6522,0.6522,0.6523,0.6523,0.6467,0.6465,0,0,0,0,0,0,0.6359,0.6367,0.6389,0.6392,0.6394,0.6424,0.643,0.6432,0.6465,0.6471,0.6463,0.6467,0.65,0.6502,0.6504,0.6472,0.6522,0.6523,0.6523,0.6468,0.6466,0.6464,0,0,0,0,0,0,0.6359,0.6361,0.6388,0.6381,0.6385,0.6422,0.6425,0.6432,0.6436,0.647,0.6477,0.646,0.6501,0.6504,0.6495,0.6474,0.6523,0.6523,0.647,0.6467,0.6465,0.6406,0,0,0,0,0,0,0.6357,0.636,0.6349,0.638,0.6386,0.6377,0.6423,0.6432,0.6437,0.6442,0.647,0.6476,0.6503,0.6494,0.6495,0.6475,0.6523,0.6472,0.6469,0.6466,0.641,0.6402,0.6395,0,0,0,0,0,0.6356,0.6329,0.6348,0.635,0.6372,0.6376,0.6379,0.6412,0.6435,0.6424,0.6446,0.6475,0.6476,0.6493,0.6494,0.6474,0.6473,0.647,0.6466,0.6414,0.6404,0.6396,0,0,0,0,0,0,0.6292,0.6334,0.6355,0.6337,0.6353,0.6386,0.6373,0.64,0.6408,0.6413,0.6453,0.6458,0.6444,0.6458,0.6476,0.6447,0.6479,0.6476,0.6439,0.643,0.6423,0.642,0.6523,0,0,0,0,0,0.6277,0.6277,0.6313,0.6294,0.6301,0.6335,0.6338,0.6362,0.638,0.6386,0.6408,0.6423,0.6428,0.6429,0.6435,0.6413,0.642,0.64,0.6392,0.6386,0.6383,0.6375,0.6367,0.6453,0.6453,0.6453,0,0,0.6243,0.6266,0.6263,0.6281,0.6296,0.6296,0.634,0.6337,0.6338,0.6386,0.6379,0.6395,0.6415,0.64,0.6394,0.6411,0.6361,0.6382,0.6376,0.6377,0.637,0.6362,0.6355,0.6451,0.6451,0.6451,0,0,0.6183,0.6199,0.6187,0.6201,0.6224,0.6248,0.6245,0.6275,0.6289,0.6283,0.632,0.632,0.6326,0.634,0.6347,0.6295,0.6322,0.6295,0.6257,0.6248,0.6241,0.6236,0.6219,0.6212,0.6292,0.6292,0.6292,0,0.6138,0.614,0.6176,0.6172,0.618,0.6225,0.6213,0.6225,0.6248,0.6252,0.6271,0.6282,0.6298,0.6288,0.6275,0.6279,0.6278,0.6293,0.6239,0.6234,0.6229,0.6214,0.6207,0.6288,0.6289,0.6289,0.6289,0,0.6085,0.6086,0.6072,0.6096,0.6102,0.6093,0.6129,0.6131,0.6155,0.6177,0.6172,0.6193,0.6205,0.6204,0.6227,0.6198,0.6208,0.6232,0.6265,0.6217,0.6203,0.6197,0.6284,0.6285,0.6286,0.6287,0,0,0.5984,0.603,0.6025,0.6037,0.6067,0.6068,0.6062,0.6076,0.6077,0.6092,0.6089,0.6094,0.6118,0.6127,0.6151,0.6144,0.6103,0.617,0.6171,0.6158,0.6075,0.6058,0.605,0.6122,0.6121,0.612,0.6074,0,0.5931,0.5925,0.5959,0.5944,0.5946,0.599,0.5985,0.6003,0.6024,0.6029,0.6051,0.6056,0.6086,0.6092,0.6086,0.6109,0.6088,0.6113,0.612,0.612,0.6115,0.6043,0.6023,0.5979,0.6069,0.6068,0.6067,0,0.5867,0.5881,0.5867,0.59,0.5902,0.5897,0.5914,0.5917,0.5939,0.5955,0.5966,0.5995,0.5993,0.6024,0.6022,0.6038,0.6043,0.6055,0.6054,0.6057,0.6091,0.6044,0.5966,0.596,0.6059,0.6059,0.606,0,0.5798,0.5812,0.5807,0.5815,0.5853,0.585,0.5865,0.5888,0.5895,0.5909,0.5914,0.5927,0.5934,0.5943,0.5976,0.5995,0.597,0.6004,0.5984,0.5983,0.5977,0.5977,0.5899,0.5978,0.5978,0.5978,0.5978,0,0.5735,0.5725,0.5776,0.5773,0.5763,0.5803,0.5792,0.5812,0.5833,0.5834,0.5872,0.5873,0.5915,0.592,0.5945,0.594,0.5942,0.5956,0.5963,0.5953,0.5952,0.5957,0.5962,0.5976,0.5977,0.5977,0.5977,0,0.5656,0.569,0.5687,0.5724,0.5733,0.5724,0.5756,0.5755,0.5779,0.578,0.5783,0.582,0.5829,0.5862,0.5877,0.5894,0.5882,0.5895,0.5875,0.588,0.5859,0.5861,0.5783,0.5776,0.5857,0.5857,0.5856,0,0.5614,0.5608,0.5645,0.565,0.5664,0.567,0.5678,0.5717,0.5724,0.575,0.5745,0.5757,0.5769,0.578,0.5808,0.5821,0.5835,0.5807,0.5837,0.5829,0.5837,0.5837,0.5838,0.5801,0.5799,0.5799,0.5798,0,0.5537,0.5555,0.5565,0.5582,0.5591,0.5606,0.5623,0.5624,0.5667,0.5673,0.5683,0.5692,0.571,0.5721,0.5739,0.5755,0.5784,0.5788,0.5785,0.5775,0.5765,0.5772,0.5859,0.579,0.5791,0.5791,0.5792,0.5792,0.5477,0.5475,0.5501,0.5512,0.553,0.5545,0.5547,0.5572,0.5581,0.56,0.5622,0.5629,0.5653,0.5681,0.5695,0.5702,0.5717,0.5711,0.571,0.5709,0.5705,0.5763,0.5705,0.5705,0.5705,0.5705,0.5706,0,0.5404,0.5424,0.5434,0.5457,0.5466,0.5494,0.5515,0.552,0.5527,0.5547,0.5559,0.5572,0.5584,0.5614,0.5629,0.5629,0.5643,0.5632,0.5632,0.5636,0.5689,0.5691,0.562,0.562,0.562,0.562,0.562,0.562,0.5367,0.5365,0.5386,0.5394,0.5414,0.5423,0.5433,0.5448,0.5465,0.5478,0.5489,0.5509,0.5534,0.5551,0.5564,0.5573,0.5577,0.5562,0.5575,0.5624,0.5632,0.564,0.5642,0.5562,0.5562,0.5522,0.5522,0.5521]}]]